Simultaneous Nadir Overpasses (SNOs) Predictions

Prediction of SNOs between NOAA-19 and NPP Satellite Orbit:

Table of predicted SNOs for the next 14.0 days since TLE Epoch: 10/3/2020
Index Date (NOAA-19) Time (NOAA-19) Lat,Lon (NOAA-19) SZA (NOAA-19 ) Date (NPP) Time (NPP) Lat,Lon (NPP) SZA (NPP ) Distance(km) Time Diff (sec)
1 10/09/2020 14:11:12 79.02, -63.42 86.77 10/09/2020 14:12:26 79.00, -63.39 86.72 2.98 74
2 10/09/2020 15:02:11 -79.02, 103.83 93.22 10/09/2020 15:03:11 -79.01, 103.85 93.26 1.58 60
3 10/09/2020 15:53:13 79.01, -89.05 86.79 10/09/2020 15:53:57 79.04, -89.04 86.80 3.45 44
4 10/09/2020 16:44:11 -79.04, 78.46 93.19 10/09/2020 16:44:41 -79.01, 78.44 93.23 2.87 30
5 10/09/2020 17:35:13 79.02,-114.42 86.82 10/09/2020 17:35:27 79.04,-114.45 86.84 2.25 14
6 10/09/2020 18:26:12 -79.02, 52.84 93.17 10/09/2020 18:26:12 -79.05, 52.79 93.14 3.53 0
7 10/09/2020 19:17:13 79.04,-139.79 86.85 10/09/2020 19:16:57 79.05,-139.85 86.87 1.66 16
8 10/09/2020 20:08:12 -79.04, 27.47 93.14 10/09/2020 20:07:42 -79.06, 27.38 93.11 2.79 30
9 10/09/2020 20:59:13 79.05,-165.16 86.88 10/09/2020 20:58:27 79.05,-165.26 86.90 2.22 46
10 10/09/2020 21:50:11 -79.05, 2.11 93.11 10/09/2020 21:49:11 -79.06, 1.98 93.07 2.85 60
11 10/09/2020 22:41:10 79.13, 170.01 86.92 10/09/2020 22:39:58 79.13, 168.83 87.04 24.70 72
